N5MDT Weather Reports


Display with metric or nautical units.
time (UTC)temp
F
wind
direction
speed
MPH
gust
MPH
rain 1hr
in
rain 24hr
in
rain mn
in
humidity
%
barometer
mb
20260510065836 74 157 0.0 2.0 0.00 0.00 0.00 83 1012.1
20260510064836 74 94 1.0 3.0 0.00 0.00 0.00 83 1012.1
20260510063836 74 115 0.0 5.0 0.00 0.00 0.00 83 1012.1
20260510062835 74 159 0.0 5.0 0.00 0.00 0.00 83 1012.3
20260510061836 74 199 2.0 5.0 0.00 0.00 0.00 82 1012.4
20260510060835 74 132 2.0 7.0 0.00 0.00 0.00 82 1012.4
20260510055836 74 163 1.0 7.0 0.00 0.00 0.00 81 1012.4
20260510054835 75 69 2.0 4.0 0.00 0.00 0.00 81 1012.5
20260510053835 75 104 0.0 1.0 0.00 0.00 0.00 81 1012.7
20260510052835 75 104 0.0 7.0 0.00 0.00 0.00 80 1012.6
20260510051835 75 92 2.0 7.0 0.00 0.00 0.00 80 1012.7
20260510050835 75 75 1.0 11.0 0.00 0.00 0.00 79 1012.5
20260510045835 75 87 2.0 7.0 0.00 0.00 0.00 79 1012.6
20260510044835 75 90 2.0 10.0 0.00 0.00 0.00 78 1012.6
20260510043835 75 130 3.0 4.0 0.00 0.00 0.00 77 1012.8
20260510042824 75 93 8.0 8.0 0.00 0.00 0.00 77 1012.7
20260510041824 75 178 4.0 9.0 0.00 0.00 0.00 77 1012.5
20260510040824 76 186 4.0 8.0 0.00 0.00 0.00 76 1012.5
20260510035824 76 92 1.0 9.0 0.00 0.00 0.00 76 1012.4
20260510034823 76 102 4.0 12.0 0.00 0.00 0.00 76 1012.6
20260510033853 76 152 4.0 8.0 0.00 0.00 0.00 76 1012.5
20260510032823 77 69 5.0 11.0 0.00 0.00 0.00 75 1012.6
20260510031823 78 178 3.0 12.0 0.00 0.00 0.00 75 1012.8
20260510030823 78 84 3.0 12.0 0.00 0.00 0.00 73 1012.4
20260510025823 80 105 9.0 18.0 0.00 0.00 0.00 72 1012.4
20260510024838 81 74 14.0 18.0 0.00 0.00 0.00 72 1012.3
20260510023853 83 97 3.0 3.0 0.00 0.00 0.00 74 1011.8
20260510022823 83 89 0.0 3.0 0.00 0.00 0.00 73 1011.0
20260510021823 83 136 1.0 7.0 0.00 0.00 0.00 73 1010.8
20260510020823 83 106 0.0 4.0 0.00 0.00 0.00 74 1010.8
20260510015823 84 152 0.0 0.0 0.00 0.00 0.00 74 1010.6
20260510014823 84 152 0.0 0.0 0.00 0.00 0.00 74 1010.4
20260510013822 84 152 0.0 0.0 0.00 0.00 0.00 73 1010.3
20260510012822 85 152 0.0 0.0 0.00 0.00 0.00 72 1010.2
20260510011822 86 152 0.0 0.0 0.00 0.00 0.00 72 1009.9
20260510010908 87 152 0.0 0.0 0.00 0.00 0.00 70 1009.8
20260510005822 88 152 0.0 0.0 0.00 0.00 0.00 70 1009.6
20260510004822 89 152 0.0 0.0 0.00 0.00 0.00 69 1009.4
20260510003852 89 152 0.0 0.0 0.00 0.00 0.00 67 1009.3
20260510002907 89 152 0.0 0.0 0.00 0.00 0.00 68 1009.3
20260510001852 90 152 0.0 0.0 0.00 0.00 0.00 67 1009.2
20260510000822 90 152 0.0 3.0 0.00 0.00 0.00 66 1009.0
20260509235821 90 107 1.0 2.0 0.00 0.00 0.00 64 1008.8
20260509234851 91 107 0.0 2.0 0.00 0.00 0.00 65 1008.8
20260509233852 92 107 0.0 1.0 0.00 0.00 0.00 64 1009.0
20260509232821 93 107 1.0 2.0 0.00 0.00 0.00 62 1009.1
20260509231821 94 117 0.0 3.0 0.00 0.00 0.00 62 1009.1
20260509230821 94 174 0.0 2.0 0.00 0.00 0.00 62 1009.0
20260509225821 94 113 0.0 0.0 0.00 0.00 0.00 63 1009.0
20260509224821 93 61 0.0 0.0 0.00 0.00 0.00 63 1009.0
20260509223821 94 61 0.0 1.0 0.00 0.00 0.00 62 1009.0
20260509222821 94 61 0.0 1.0 0.00 0.00 0.00 63 1008.8
20260509221821 93 61 0.0 0.0 0.00 0.00 0.00 64 1008.9
20260509220850 93 61 0.0 0.0 0.00 0.00 0.00 64 1008.9
20260509215850 92 61 0.0 0.0 0.00 0.00 0.00 66 1009.1
20260509214850 93 51 0.0 0.0 0.00 0.00 0.00 66 1009.0
20260509213906 92 60 0.0 1.0 0.00 0.00 0.00 66 1008.9
20260509212820 92 113 1.0 1.0 0.00 0.00 0.00 66 1009.0
20260509211850 92 113 0.0 1.0 0.00 0.00 0.00 64 1009.0
20260509210820 93 113 0.0 1.0 0.00 0.00 0.00 62 1009.0
20260509205820 92 113 1.0 4.0 0.00 0.00 0.00 61 1009.2
20260509204820 92 288 0.0 2.0 0.00 0.00 0.00 62 1009.4
20260509203819 92 167 0.0 4.0 0.00 0.00 0.00 70 1009.6
20260509202820 90 193 0.0 3.0 0.00 0.00 0.00 72 1009.7
20260509201850 89 5 0.0 0.0 0.00 0.00 0.00 74 1009.7
20260509200819 88 50 0.0 0.0 0.00 0.00 0.00 75 1009.7
20260509195819 87 64 0.0 0.0 0.00 0.00 0.00 77 1009.8
20260509194819 86 64 0.0 0.0 0.00 0.00 0.00 78 1010.0
20260509193849 86 67 0.0 0.0 0.00 0.00 0.00 79 1010.2
20260509192849 87 147 0.0 0.0 0.00 0.00 0.00 75 1010.2
20260509191819 87 147 0.0 3.0 0.00 0.00 0.00 72 1010.2
20260509190819 87 138 0.0 0.0 0.00 0.00 0.00 75 1010.3
20260509185849 86 167 0.0 4.0 0.00 0.00 0.00 76 1010.6
20260509184819 85 164 0.0 4.0 0.00 0.00 0.00 76 1010.7
20260509183849 85 279 0.0 0.0 0.00 0.00 0.00 76 1010.9
20260509182819 85 169 0.0 0.0 0.00 0.00 0.00 78 1011.0
20260509181818 84 169 0.0 0.0 0.00 0.00 0.00 78 1011.0
20260509180818 84 197 0.0 0.0 0.00 0.00 0.00 80 1011.2
20260509175818 83 117 0.0 0.0 0.00 0.00 0.00 79 1011.3
20260509174848 83 311 0.0 0.0 0.00 0.00 0.00 80 1011.4
20260509173848 83 121 0.0 0.0 0.00 0.00 0.00 81 1011.3
20260509172818 82 121 0.0 4.0 0.00 0.00 0.00 81 1011.3
20260509171848 82 157 3.0 7.0 0.00 0.00 0.00 83 1011.2
20260509170818 81 156 0.0 0.0 0.00 0.00 0.00 82 1011.3
20260509165818 81 313 0.0 0.0 0.00 0.00 0.00 83 1011.4
20260509164818 81 312 0.0 0.0 0.00 0.00 0.00 83 1011.6
20260509163847 81 293 0.0 0.0 0.00 0.00 0.00 84 1011.5
20260509162817 80 278 0.0 0.0 0.00 0.00 0.00 85 1011.6
20260509161817 80 168 0.0 0.0 0.00 0.00 0.00 86 1011.7
20260509160817 79 118 0.0 0.0 0.00 0.00 0.00 86 1011.9
20260509155817 79 118 0.0 0.0 0.00 0.00 0.00 88 1011.7
20260509154817 78 102 0.0 0.0 0.00 0.00 0.00 87 1011.8
20260509153847 78 244 0.0 4.0 0.00 0.00 0.00 87 1011.7
20260509152847 78 142 0.0 5.0 0.00 0.00 0.00 89 1011.5
20260509151817 78 184 1.0 4.0 0.00 0.00 0.00 89 1011.3
20260509150817 77 173 0.0 0.0 0.00 0.00 0.00 90 1011.3
20260509145847 77 123 0.0 2.0 0.00 0.00 0.00 90 1011.5
20260509144847 77 167 0.0 3.0 0.00 0.00 0.00 90 1011.4
20260509143902 76 200 0.0 0.0 0.00 0.00 0.00 90 1011.3
20260509142902 76 179 0.0 0.0 0.00 0.00 0.00 90 1011.2
20260509141847 76 101 0.0 3.0 0.00 0.00 0.00 90 1010.9
20260509140847 76 144 0.0 4.0 0.00 0.00 0.00 91 1010.9
20260509135846 76 144 0.0 4.0 0.00 0.00 0.00 91 1011.1
20260509134846 75 177 0.0 2.0 0.00 0.00 0.00 91 1011.3
20260509133846 75 186 0.0 2.0 0.00 0.00 0.00 91 1011.4
20260509132846 75 129 0.0 2.0 0.00 0.00 0.00 91 1011.3
20260509131846 75 129 0.0 2.0 0.00 0.00 0.00 90 1011.5
20260509130846 75 129 0.0 0.0 0.00 0.00 0.00 90 1011.5
20260509125846 74 129 0.0 0.0 0.00 0.00 0.00 90 1011.4
20260509124846 74 129 0.0 0.0 0.00 0.00 0.00 90 1011.5
20260509123846 74 129 0.0 0.0 0.00 0.00 0.00 90 1011.6
20260509122845 74 129 0.0 0.0 0.00 0.00 0.00 90 1011.6
20260509121845 74 129 0.0 0.0 0.00 0.00 0.00 90 1011.3
20260509120845 74 129 0.0 0.0 0.00 0.00 0.00 90 1011.2
20260509115845 74 129 0.0 0.0 0.00 0.00 0.00 90 1011.0
20260509114845 74 129 0.0 0.0 0.00 0.00 0.00 90 1011.3
20260509113845 74 129 0.0 0.0 0.00 0.00 0.00 90 1010.8
20260509112845 74 129 0.0 0.0 0.00 0.00 0.00 90 1010.8
20260509111845 74 129 0.0 0.0 0.00 0.00 0.00 89 1010.7
20260509110845 74 129 0.0 0.0 0.00 0.00 0.00 90 1010.8
20260509105845 74 129 0.0 0.0 0.00 0.00 0.00 89 1010.5
20260509104845 74 129 0.0 0.0 0.00 0.00 0.00 89 1010.6
20260509103845 74 129 0.0 0.0 0.00 0.00 0.00 89 1010.8
20260509102845 74 129 0.0 0.0 0.00 0.00 0.00 89 1011.2
20260509101845 74 129 0.0 0.0 0.00 0.00 0.00 90 1011.0
20260509100845 74 129 0.0 0.0 0.00 0.00 0.00 90 1010.9
20260509095845 74 129 0.0 0.0 0.00 0.00 0.00 89 1010.8
20260509094845 74 129 0.0 0.0 0.00 0.00 0.00 90 1010.6
20260509093845 74 129 0.0 0.0 0.00 0.00 0.00 89 1010.6
20260509092844 74 129 0.0 0.0 0.00 0.00 0.00 89 1010.6
20260509091845 74 129 0.0 0.0 0.00 0.00 0.00 89 1010.8
20260509090844 74 129 0.0 0.0 0.00 0.00 0.00 89 1011.1
20260509085844 74 129 0.0 0.0 0.00 0.00 0.00 89 1011.2
20260509084844 74 129 0.0 0.0 0.00 0.00 0.00 89 1011.0
20260509083844 74 129 0.0 0.0 0.00 0.00 0.00 89 1011.0
20260509082844 74 129 0.0 0.0 0.00 0.00 0.00 89 1011.1
20260509081844 74 129 0.0 0.0 0.00 0.00 0.00 89 1011.0
20260509080859 74 129 0.0 0.0 0.00 0.00 0.00 89 1011.1
20260509075859 74 129 0.0 0.0 0.00 0.00 0.00 89 1011.3
20260509074844 74 129 0.0 0.0 0.00 0.00 0.00 89 1011.2
20260509073844 74 129 0.0 0.0 0.00 0.00 0.00 89 1011.2
20260509072859 74 157 0.0 5.0 0.00 0.00 0.00 89 1010.9
20260509071844 74 134 2.0 2.0 0.00 0.00 0.00 89 1010.8
20260509070844 74 111 0.0 3.0 0.00 0.00 0.00 89 1010.8